Location: Sternwarte_Laufen
(47.9344°N, 12.9346°E)
Time: 18:18:39
(UTC+02:00)

ARIANE 6 FM1 Upper Stage - Pass Details

Date: 22 August 2024
Orbit: 566 x 594 km, 62.0° (Epoch: 19 September)

Event Time Altitude Azimuth Distance (km) Brightness Sun altitude
Exits shadow 05:23:09 - 197° (SSW) 2,600 5.6 -8.5°
Reaches altitude 10° 05:25:02 10° 190° (S) 1,893 5.0 -8.2°
Maximum altitude 05:28:57 36° 123° (ESE) 936 4.1 -7.7°
Drops below altitude 10° 05:32:56 10° 57° (ENE) 1,923 7.1 -7.1°
Sets 05:35:19 0° 49° (NE) 2,832 8.1 -6.7°
